Stations météo

Publicité
Aurillac, France (7549): Température de l'air & dewpoint: 12.02.2020 08:00:00 - 18.02.2020 08:00:00 (CET)Aurillac, France (7549): Température de l'air 5cm: 12.02.2020 08:00:00 - 18.02.2020 08:00:00 (CET)Aurillac, France (7549): Température de l'air -20cm & Température de l'air -100cm: 12.02.2020 08:00:00 - 18.02.2020 08:00:00 (CET)Aurillac, France (7549): Vitesse du vent & gusts: 12.02.2020 08:00:00 - 18.02.2020 08:00:00 (CET)Aurillac, France (7549): Direction du vent: 12.02.2020 08:00:00 - 18.02.2020 08:00:00 (CET)Aurillac, France (7549): reduced air pressure: 12.02.2020 08:00:00 - 18.02.2020 08:00:00 (CET)Aurillac, France (7549): visibility: 12.02.2020 08:00:00 - 18.02.2020 08:00:00 (CET)Aurillac, France (7549): Ensoleillement: 12.02.2020 08:00:00 - 18.02.2020 08:00:00 (CET)Aurillac, France (7549): Quantités de précipitations: 12.02.2020 08:00:00 - 18.02.2020 08:00:00 (CET)
Date & Time tt [°C] td [°C] tt 5cm [°C] tt -20cm [°C] tt -100cm [°C] ff [km/h] ff [knt] fx [km/h] fx [knt] dd ppp [hPa] vv [km] sd [min] rr [mm]
18.02.2020 08:00:00 2,6 2,3 1,9 6,8 7,3 5 3 11 6 W 1034,3 18 0 0,2
18.02.2020 07:00:00 2,8 2,5 1,7 6,9 7,3 4 2 6 3 WSW 1033,7 11 0 0,0
18.02.2020 06:00:00 2,9 2,5 1,6 6,9 7,3 0 0 14 7 N 1033,7 14 0 0,0
18.02.2020 05:00:00 3,2 2,8 1,4 7,0 7,3 6 4 16 9 W 1033,6 18 0 0,2
18.02.2020 04:00:00 3,1 2,2 2,1 7,0 7,3 10 5 18 10 WNW 1033,4 20 0 0,0
18.02.2020 03:00:00 3,3 2,7 2,2 7,1 7,3 4 2 16 9 W 1033,7 18 0 0,0
18.02.2020 02:00:00 4,0 3,0 3,4 7,1 7,3 11 6 25 13 WNW 1033,4 46 0 0,0
18.02.2020 01:00:00 4,3 3,4 2,9 7,1 7,3 11 6 30 16 WNW 1032,7 42 0 0,0
18.02.2020 00:00:00 4,3 3,1 3,2 7,1 7,3 13 7 28 15 WNW 1032,5 51 0 0,0
17.02.2020 23:00:00 5,1 3,8 4,4 7,1 7,3 13 7 25 13 NW 1032,2 59 0 0,0
17.02.2020 22:00:00 5,6 4,2 4,8 7,2 7,3 12 7 22 12 W 1031,6 54 0 0,0
17.02.2020 21:00:00 5,6 4,7 4,3 7,1 7,3 9 5 28 15 WNW 1031,0 42 0 0,0
17.02.2020 20:00:00 5,6 5,0 4,3 7,1 7,3 9 5 16 8 WSW 1030,2 9 0 0,4
17.02.2020 19:00:00 5,5 4,6 4,6 7,1 7,3 5 3 14 7 W 1029,6 43 0 0,0
17.02.2020 18:00:00 5,9 4,9 5,3 7,1 7,3 11 6 23 13 WNW 1028,8 18 0 0,0
17.02.2020 17:00:00 6,6 5,1 6,1 7,1 7,3 9 5 16 9 W 1027,9 60 0 0,0
17.02.2020 16:00:00 6,4 4,4 5,7 7,0 7,3 10 5 27 14 W 1027,6 18 0 0,0
17.02.2020 15:00:00 6,5 5,3 6,4 7,0 7,3 15 8 34 19 W 1027,3 16 0 1,2
17.02.2020 14:00:00 7,4 7,0 7,2 7,0 7,3 10 5 23 12 WNW 1026,6 2,8 0 0,6
17.02.2020 13:00:00 7,1 6,7 7,0 7,0 7,3 8 4 24 13 NW 1026,4 1,9 0 1,0
17.02.2020 12:00:00 7,4 7,0 7,4 7,0 7,2 16 8 33 18 WNW 1026,3 3,2 0 0,8
17.02.2020 11:00:00 8,2 7,8 7,7 7,0 7,2 11 6 28 15 W 1025,2 2,0 0 0,4
17.02.2020 10:00:00 9,6 6,5 8,7 7,0 7,3 9 5 20 11 S 1023,1 60 0 0,0
17.02.2020 09:00:00 9,1 6,2 7,2 7,0 7,3 7 4 17 9 SSE 1022,9 60 0 0,0
17.02.2020 08:00:00 8,0 5,8 5,8 7,1 7,3 6 3 15 8 E 1022,1 60 0 0,0
17.02.2020 07:00:00 7,9 5,4 5,6 7,1 7,2 6 3 16 9 E 1021,8 60 0 0,0
17.02.2020 06:00:00 8,1 5,6 5,8 7,1 7,2 9 5 16 9 E 1021,6 60 0 0,0
17.02.2020 05:00:00 8,6 5,7 5,9 7,1 7,2 9 5 21 11 E 1021,6 60 0 0,0
17.02.2020 04:00:00 8,7 5,8 6,8 7,1 7,2 10 5 23 12 E 1021,3 60 0 0,0
17.02.2020 03:00:00 8,9 5,8 7,5 7,2 7,2 11 6 24 13 E 1021,9 60 0 0,0
17.02.2020 02:00:00 9,1 6,2 7,8 7,2 7,3 13 7 24 13 ESE 1022,2 60 0 0,0
17.02.2020 01:00:00 9,2 6,3 7,9 7,2 7,2 14 8 49 26 E 1022,3 60 0 0,0
17.02.2020 00:00:00 9,1 6,2 6,5 7,2 7,3 19 10 31 17 ESE 1022,3 60 0 0,0
16.02.2020 23:00:00 8,5 5,8 6,7 7,1 7,2 13 7 26 14 E 1022,8 60 0 0,0
16.02.2020 22:00:00 8,9 6,2 6,2 7,1 7,2 14 8 29 16 ESE 1022,7 60 0 0,0
16.02.2020 21:00:00 9,3 6,2 6,5 7,0 7,2 7 4 20 11 ESE 1022,6 60 0 0,0
16.02.2020 20:00:00 10,1 6,4 7,3 7,0 7,2 8 4 21 12 SE 1022,2 60 0 0,0
16.02.2020 19:00:00 11,1 6,6 9,9 6,9 7,2 16 9 39 21 ESE 1021,4 60 0 0,0
16.02.2020 18:00:00 12,5 6,5 11,4 6,7 7,2 21 11 38 21 SSE 1020,6 60 0 0,0
16.02.2020 17:00:00 13,4 7,2 12,9 6,6 7,3 13 7 40 22 SSE 1020,2 60 3 0,0
16.02.2020 16:00:00 14,0 7,5 14,1 6,5 7,2 16 9 37 20 SSE 1019,5 58 14 0,0
16.02.2020 15:00:00 13,8 7,1 14,4 6,4 7,2 16 9 34 18 SE 1019,6 58 1 0,0
16.02.2020 14:00:00 13,9 7,2 13,8 6,3 7,2 11 6 36 19 SE 1019,9 59 5 0,0
16.02.2020 13:00:00 14,0 7,5 13,8 6,2 7,2 15 8 36 19 ESE 1020,0 60 28 0,0
16.02.2020 12:00:00 13,3 6,9 12,1 6,2 7,2 18 10 36 19 ESE 1021,0 60 28 0,0
16.02.2020 11:00:00 11,1 6,2 10,0 6,2 7,2 12 7 36 19 ESE 1022,0 58 18 0,0
16.02.2020 10:00:00 9,6 5,8 9,2 6,2 7,2 21 11 37 20 E 1021,9 60 33 0,0
16.02.2020 09:00:00 8,3 5,0 6,2 6,2 7,2 22 12 39 21 E 1022,4 53 18 0,0
16.02.2020 08:00:00 7,1 4,6 5,8 6,3 7,2 22 12 41 22 E 1022,8 60 0 0,0
16.02.2020 07:00:00 7,1 3,3 5,7 6,3 7,2 21 12 39 21 E 1022,8 59 0 0,0
16.02.2020 06:00:00 8,0 1,2 5,7 6,4 7,2 16 9 28 15 E 1022,4 60 0 0,0
16.02.2020 05:00:00 8,0 0,5 4,9 6,4 7,2 17 9 24 13 E 1022,2 60 0 0,0
16.02.2020 04:00:00 7,8 0,3 5,1 6,4 7,2 14 8 27 15 E 1022,9 60 0 0,0
16.02.2020 03:00:00 7,9 1,1 6,1 6,5 7,3 19 11 34 18 E 1023,3 60 0 0,0
16.02.2020 02:00:00 8,1 1,7 5,7 6,5 7,2 20 11 34 18 E 1023,6 60 0 0,0
16.02.2020 01:00:00 8,7 2,3 5,1 6,5 7,2 15 8 25 14 E 1024,7 60 0 0,0
16.02.2020 00:00:00 7,4 3,1 4,6 6,5 7,2 8 4 26 14 E 1025,4 60 0 0,0
15.02.2020 23:00:00 8,4 3,0 5,3 6,4 7,2 15 8 28 15 E 1024,3 60 0 0,0
15.02.2020 22:00:00 9,0 3,2 6,0 6,4 7,3 13 7 21 11 E 1024,7 60 0 0,0
15.02.2020 21:00:00 9,8 3,3 5,7 6,3 7,2 11 6 16 9 E 1024,6 60 0 0,0
15.02.2020 20:00:00 10,6 2,7 5,1 6,2 7,2 8 4 14 8 ESE 1024,2 60 0 0,0
15.02.2020 19:00:00 10,0 3,3 5,9 6,2 7,3 9 5 13 7 ESE 1023,7 60 0 0,0
15.02.2020 18:00:00 11,9 2,1 7,5 6,0 7,2 5 3 18 10 E 1023,1 60 0 0,0
15.02.2020 17:00:00 14,0 1,6 13,0 5,9 7,2 10 5 27 15 S 1021,8 48 25 0,0
15.02.2020 16:00:00 15,2 3,0 14,4 5,8 7,3 13 7 32 17 SSE 1021,9 60 60 0,0
15.02.2020 15:00:00 14,9 1,1 16,4 5,6 7,2 15 8 30 16 SSE 1021,3 60 60 0,0
15.02.2020 14:00:00 14,0 0,6 14,8 5,6 7,3 16 8 42 23 SE 1022,6 60 60 0,0
15.02.2020 13:00:00 12,9 0,3 13,8 5,6 7,3 19 10 33 18 SE 1023,4 60 60 0,0
15.02.2020 12:00:00 11,3 0,7 11,2 5,7 7,3 15 8 29 16 SE 1024,5 60 57 0,0
15.02.2020 11:00:00 8,7 1,6 6,2 5,8 7,3 11 6 19 10 E 1025,3 60 60 0,0
15.02.2020 10:00:00 3,6 0,3 2,3 5,8 7,3 10 5 19 11 ENE 1026,9 60 56 0,0
15.02.2020 09:00:00 1,3 -0,3 -2,0 5,9 7,3 11 6 20 11 E 1027,1 60 46 0,0
15.02.2020 08:00:00 -1,1 -1,8 -3,1 6,0 7,3 14 8 21 11 E 1027,3 39 0 0,0
15.02.2020 07:00:00 -1,9 -2,2 -4,8 6,1 7,3 10 5 14 8 E 1027,4 16 0 0,0
15.02.2020 06:00:00 -2,2 -2,6 -4,4 6,2 7,3 9 5 14 8 ESE 1027,5 15 0 0,0
15.02.2020 05:00:00 -1,3 -1,4 -4,2 6,3 7,3 11 6 15 8 E 1027,0 15 0 0,0
15.02.2020 04:00:00 -1,6 -2,0 -4,5 6,4 7,3 6 3 10 5 E 1027,3 12 0 0,0
15.02.2020 03:00:00 -0,6 -1,0 -3,0 6,5 7,3 6 4 14 8 E 1027,9 27 0 0,0
15.02.2020 02:00:00 -0,5 -0,5 -3,9 6,6 7,3 9 5 13 7 E 1028,0 13 0 0,0
15.02.2020 01:00:00 -0,7 -0,7 -3,5 6,6 7,3 9 5 13 7 E 1028,5 6 0 0,0
15.02.2020 00:00:00 -0,3 -0,3 -3,4 6,7 7,3 5 3 9 5 ESE 1028,7 5 0 0,0
14.02.2020 23:00:00 0,3 0,0 -3,4 6,7 7,3 2 1 5 3 ESE 1028,5 1,8 0 0,0
14.02.2020 22:00:00 0,8 0,4 -2,3 6,8 7,3 3 2 8 4 SE 1028,6 5 0 0,0
14.02.2020 21:00:00 2,1 1,4 -1,5 6,8 7,4 7 4 10 5 E 1028,1 17 0 0,0
14.02.2020 20:00:00 3,6 0,6 -1,1 6,7 7,3 3 2 4 2 W 1028,0 12 0 0,0
14.02.2020 19:00:00 5,3 2,6 0,7 6,7 7,3 4 2 9 5 W 1027,3 16 0 0,0
14.02.2020 18:00:00 7,7 2,8 6,3 6,6 7,3 5 3 17 9 W 1026,4 20 53 0,0
14.02.2020 17:00:00 8,7 2,9 8,3 6,5 7,3 9 5 19 11 NW 1026,2 48 58 0,0
14.02.2020 16:00:00 8,8 2,6 9,0 6,4 7,3 11 6 27 15 NW 1026,4 19 47 0,0
14.02.2020 15:00:00 7,9 2,6 9,6 6,4 7,3 10 5 32 18 NW 1026,9 52 42 0,0
14.02.2020 14:00:00 7,9 3,7 7,6 6,3 7,3 10 5 21 12 WNW 1027,5 20 2 0,0
14.02.2020 13:00:00 7,4 4,2 6,7 6,3 7,3 11 6 26 14 N 1027,6 20 4 0,0
14.02.2020 12:00:00 6,1 5,5 6,0 6,3 7,3 13 7 21 11 NW 1027,7 8 0 0,0
14.02.2020 11:00:00 5,5 4,9 5,5 6,3 7,3 6 3 16 9 NW 1027,9 3,5 0 0,0
14.02.2020 10:00:00 5,7 5,0 5,0 6,3 7,4 8 5 16 8 WNW 1027,4 9 0 0,0
14.02.2020 09:00:00 5,0 4,0 4,0 6,3 7,3 5 3 13 7 WSW 1027,5 12 0 0,0
14.02.2020 08:00:00 4,5 4,1 3,5 6,3 7,4 6 3 9 5 W 1027,1 8 0 0,0
14.02.2020 07:00:00 4,4 3,8 3,4 6,3 7,4 6 4 24 13 W 1026,3 9 0 0,0
14.02.2020 06:00:00 4,8 4,4 4,1 6,3 7,4 9 5 22 12 WNW 1025,3 7 0 0,0
14.02.2020 05:00:00 5,2 4,5 4,5 6,3 7,4 9 5 23 12 W 1025,1 7 0 0,0
14.02.2020 04:00:00 5,3 4,7 4,8 6,3 7,3 12 7 24 13 WNW 1024,5 7 0 0,2
14.02.2020 03:00:00 5,5 4,5 4,8 6,3 7,4 10 6 25 13 W 1024,5 8 0 0,0
14.02.2020 02:00:00 5,5 4,5 4,9 6,3 7,3 9 5 26 14 W 1024,1 9 0 0,0
14.02.2020 01:00:00 5,6 4,7 5,0 6,3 7,4 10 5 27 15 WNW 1024,4 6 0 0,0
14.02.2020 00:00:00 5,9 4,4 5,2 6,3 7,4 15 8 34 19 W 1023,6 9 0 0,0
13.02.2020 23:00:00 5,8 4,0 4,6 6,2 7,4 19 10 36 20 W 1022,9 10 0 0,0
13.02.2020 22:00:00 6,0 4,0 5,0 6,2 7,4 20 11 39 21 W 1021,9 10 0 0,0
13.02.2020 21:00:00 6,5 4,3 5,9 6,1 7,4 9 5 35 19 W 1022,0 9 0 0,0
13.02.2020 20:00:00 7,0 4,5 6,4 6,1 7,4 20 11 49 27 W 1021,0 12 0 0,0
13.02.2020 19:00:00 7,7 5,3 6,8 6,0 7,4 26 14 71 39 W 1019,1 16 0 1,2
13.02.2020 18:00:00 9,1 8,0 8,4 6,0 7,4 23 12 51 27 WSW 1016,5 6 0 0,8
13.02.2020 17:00:00 9,0 7,8 7,6 5,9 7,4 20 11 48 26 SW 1016,8 43 0 0,4
13.02.2020 16:00:00 8,0 7,4 7,5 5,9 7,4 19 11 49 26 SW 1017,2 7 0 0,0
13.02.2020 15:00:00 7,8 7,0 7,3 5,9 7,4 16 9 39 21 SW 1017,2 20 0 0,0
13.02.2020 14:00:00 7,4 7,0 6,2 5,9 7,4 19 10 34 18 SW 1018,0 32 0 0,6
13.02.2020 13:00:00 6,3 5,7 5,5 5,9 7,4 10 5 30 16 SSW 1018,5 3,4 0 3,5
13.02.2020 12:00:00 5,9 4,9 4,8 6,0 7,4 9 5 21 11 S 1019,0 12 0 2,0
13.02.2020 11:00:00 4,9 4,3 3,9 6,1 7,4 9 5 23 12 E 1019,5 11 0 1,2
13.02.2020 10:00:00 4,6 3,1 2,5 6,1 7,4 10 6 21 11 E 1019,7 6 0 0,8
13.02.2020 09:00:00 3,3 1,3 2,3 6,2 7,4 11 6 - - E 1019,9 7 0 1,0
13.02.2020 08:00:00 3,0 -0,1 1,4 6,4 7,4 16 9 23 12 E 1019,6 59 0 0,0
13.02.2020 07:00:00 1,9 -0,5 0,8 6,4 7,4 13 7 27 15 E 1020,4 58 0 0,0
13.02.2020 06:00:00 1,6 -1,0 -0,5 6,5 7,4 17 9 24 13 E 1020,2 60 0 0,0
13.02.2020 05:00:00 1,1 -1,0 -0,3 6,6 7,4 13 7 23 12 E 1020,6 60 0 0,0
13.02.2020 04:00:00 0,4 -1,0 -0,8 6,7 7,4 16 8 22 12 E 1021,5 56 0 0,0
13.02.2020 03:00:00 0,3 -1,1 -1,5 6,8 7,4 14 8 20 11 E 1022,7 52 0 0,0
13.02.2020 02:00:00 -0,3 -1,3 -1,8 6,9 7,4 15 8 22 12 E 1023,3 43 0 0,0
13.02.2020 01:00:00 -0,2 -1,5 -1,4 7,0 7,4 15 8 21 11 E 1024,2 37 0 0,0
13.02.2020 00:00:00 -0,3 -1,4 -2,2 7,1 7,4 14 8 18 10 E 1024,5 31 0 0,0
12.02.2020 23:00:00 0,5 -1,0 -0,8 7,1 7,4 13 7 19 10 E 1024,4 36 0 0,0
12.02.2020 22:00:00 0,8 -0,5 -0,4 7,1 7,4 14 8 21 11 E 1024,4 30 0 0,0
12.02.2020 21:00:00 1,1 0,1 -1,0 7,1 7,4 12 6 16 9 E 1024,6 18 0 0,0
12.02.2020 20:00:00 1,8 0,9 -0,8 7,1 7,4 6 3 10 5 E 1024,9 34 0 0,0
12.02.2020 19:00:00 3,4 1,8 -0,2 7,1 7,4 3 2 7 4 SSE 1024,9 20 0 0,0
12.02.2020 18:00:00 5,5 1,4 3,3 7,0 7,4 5 3 8 4 NNW 1024,2 60 4 0,0
12.02.2020 17:00:00 5,7 1,8 4,9 6,9 7,4 7 4 13 7 WNW 1024,4 60 10 0,0
12.02.2020 16:00:00 6,4 1,3 6,8 6,8 7,4 8 4 11 6 W 1024,6 52 8 0,0
12.02.2020 15:00:00 8,1 1,5 9,2 6,7 7,4 6 4 21 11 W 1024,5 20 57 0,0
12.02.2020 14:00:00 7,3 0,5 9,4 6,6 7,4 8 4 19 11 WNW 1025,6 60 52 0,0
12.02.2020 13:00:00 6,8 -0,7 7,2 6,6 7,4 9 5 21 11 NW 1026,7 57 36 0,0
12.02.2020 12:00:00 5,1 3,1 4,9 6,6 7,4 2 1 11 6 NNW 1027,7 19 60 0,0
12.02.2020 11:00:00 2,0 2,0 3,2 6,7 7,4 8 4 13 7 E 1028,8 0,2 24 0,0
12.02.2020 10:00:00 1,8 1,8 2,3 6,7 7,4 8 5 12 6 E 1028,7 0,2 2 0,0
12.02.2020 09:00:00 1,7 1,7 1,8 6,8 7,4 3 2 6 4 WNW 1028,3 0,5 0 0,0
12.02.2020 08:00:00 1,9 1,9 1,6 6,9 7,4 4 2 6 4 WSW 1028,0 0,5 0 0,0

tt = Température de l'air
td = dewpoint
tt 5cm = Température de l'air 5cm
tt -20cm = Température de l'air -20cm
tt -100cm = Température de l'air -100cm
ff = Vitesse du vent
fx = gusts
dd = Direction du vent
ppp = reduced air pressure
vv = visibility
sd = Ensoleillement
rr = Quantités de précipitations

stations d'obs. à proximité